Regional Weather Roundup
Issued by NWS

Home | Current Version | Previous Version | Text Only | Print | Product List | Glossary Off
Versions: 1 2 3 4 5 6 7 8 9 10 11 12 13 14 15 16 17 18 19 20 21 22 23 24 25 26 27 28 29 30 31 32 33 34 35 36 37 38 39 40 41 42 43 44 45 46 47 48 49 50

000
ASUS43 KMKX 200100
RWRWI

WISCONSIN REGIONAL WEATHER ROUNDUP
NATIONAL WEATHER SERVICE MILWAUKEE/SULLIVAN WI
700 PM CST SUN NOV 19 2017

NOTE: "FAIR" INDICATES FEW OR NO CLOUDS BELOW 12,000 FEET WITH NO
SIGNIFICANT WEATHER AND/OR OBSTRUCTIONS TO VISIBILITY.

WIZ001-002-006>008-014>016-023>028-200200-
NORTHWEST WISCONSIN

CITY           SKY/WX    TMP DP  RH WIND       PRES   REMARKS
SUPERIOR ARPT  CLOUDY    19  17  91 CALM      29.85F
ASHLAND        CLOUDY    22  18  85 CALM      29.87F
HAYWARD        CLOUDY    26  15  63 SW6       29.85F WCI  19
SIREN          CLEAR     26  18  71 SE3       29.85F
CUMBERLAND     CLEAR     25  19  80 S3        29.86S
RICE LAKE      CLEAR     26  18  71 SE3       29.89S
CHETEK         CLEAR     26  17  66 E7        29.88F WCI  19
LADYSMITH      CLOUDY    26  17  69 S5        29.88F WCI  20
EAU CLAIRE     NOT AVBL
MENOMONIE      CLEAR     25  19  77 E7        29.88F WCI  17
NEW RICHMOND   CLEAR     28  21  74 SE5       29.86F WCI  23
OSCEOLA        CLEAR     27  21  77 E8        29.88F WCI  19
$$

WIZ003>005-009-010-017-018-200200-
NORTH CENTRAL WISCONSIN

CITY           SKY/WX    TMP DP  RH WIND       PRES   REMARKS
MANITOWISH WTR CLOUDY    19  18  95 CALM      29.84S
ARBOR VITAE    CLOUDY    23  17  77 CALM      29.84S
WOODRUFF       CLOUDY    23  17  77 CALM      29.84S
RHINELANDER    CLOUDY   N/A N/A N/A SW6       29.86S
EAGLE RIVER    CLOUDY    21  17  83 CALM      29.84S
LAND O LAKES   CLOUDY    21  18  88 SW3       29.85S
PHILLIPS       MOCLDY    26  16  65 SW6       29.85S WCI  19
TOMAHAWK       CLOUDY    25  15  66 CALM      29.87F
MEDFORD        PTCLDY    22  16  76 S3        29.88F
MERRILL        CLOUDY    27  16  63 SW5       29.88F WCI  22
$$

WIZ029-030-035-036-043>047-200200-
CENTRAL WISCONSIN

CITY           SKY/WX    TMP DP  RH WIND       PRES   REMARKS
WAUSAU         CLOUDY    27  15  61 SW7       29.89F WCI  19
MOSINEE        NOT AVBL
MARSHFIELD     CLEAR     23  14  68 SW7       29.89F WCI  15
STEVENS POINT  CLOUDY    27  14  57 SW7       29.93S WCI  19
WAUPACA        CLOUDY    29  16  58 SW3       29.96R
WAUTOMA        CLEAR     27  16  63 S5        29.96S WCI  22
WISC RAPIDS    CLEAR     25  15  66 SW5       29.93F WCI  19
CAMP DOUGLAS   CLEAR    N/A N/A N/A S6        29.95F
$$

WIZ011>013-019>022-031-037>040-048>050-200200-
NORTHEAST WISCONSIN

CITY           SKY/WX    TMP DP  RH WIND       PRES   REMARKS
ANTIGO         CLOUDY    26  15  64 SW8       29.88S WCI  17
SHAWANO        CLOUDY    31  13  47 CALM      29.93S
OCONTO         CLOUDY    27  12  53 W3        29.93S
STURGEON BAY   CLOUDY    30  14  51 W9        29.93S WCI  22
GREEN BAY      CLOUDY    29  19  66 SW5       29.94F WCI  24
MANITOWOC      CLOUDY    30  16  56 W6        29.96F WCI  24
APPLETON       PTCLDY    28  12  50 SW6       29.93F WCI  22
CLINTONVILLE   MOCLDY    28  14  54 SW6       29.93S WCI  22
OSHKOSH        CLOUDY    28  17  63 SW6       29.96S WCI  22
$$

WIZ032>034-041-042-053>061-200200-
SOUTHWEST WISCONSIN

CITY           SKY/WX    TMP DP  RH WIND       PRES   REMARKS
LA CROSSE      CLEAR     34  23  64 SE9       29.94F WCI  27
SPARTA         CLEAR     31  20  64 SW3       29.95F
VIROQUA        CLEAR     29  23  76 S8        29.94F WCI  21
BOSCOBEL       CLEAR     30  19  63 SW5       30.00F WCI  25
PRAIRIE DU CHI CLEAR     32  20  60 CALM      29.99F
PLATTEVILLE    CLEAR     28  22  78 S7        30.02R WCI  21
$$

WIZ056-057-062-063-064-067-068-200200-
SOUTH CENTRAL WISCONSIN

CITY           SKY/WX    TMP DP  RH WIND       PRES   REMARKS
REEDSBURG      CLEAR     29  18  61 SW7       29.97S WCI  22
BARABOO/DELLS  CLEAR     29  17  61 SW7       29.97S WCI  22
LONE ROCK      CLEAR     24  19  81 CALM      30.00F
MINERAL POINT  CLEAR     30  23  74 S9        30.00R WCI  22
MADISON        PTCLDY    31  19  61 SW9       29.99S WCI  23
MIDDLETON      CLEAR     30  20  65 SW8       30.00S WCI  23
WATERTOWN      CLEAR     28  19  69 SW7       29.99S WCI  20
MONROE         CLEAR     30  19  64 SW14      30.00S WCI  20
JANESVILLE     CLEAR     28  19  69 W6        30.03S WCI  22
$$

WIZ051-052-058>065-066-070>072-200200-
SOUTHEAST WISCONSIN

CITY           SKY/WX    TMP DP  RH WIND       PRES   REMARKS
MILWAUKEE      CLEAR     31  19  61 W9        30.00F WCI  23
WAUKESHA       CLEAR     27  16  63 W13       30.00F WCI  16
MILWAUKEE/TIMM CLEAR     28  12  50 SW5       30.01S WCI  23
RACINE         CLEAR     30  19  63 W8        30.02F WCI  22
BURLINGTON     CLEAR     29  24  82 SW7       30.02S WCI  22
KENOSHA        CLEAR     29  19  66 SW10      30.02F WCI  20
FOND DU LAC    MOCLDY    28  17  63 SW7       29.97S WCI  21
SHEBOYGAN      CLOUDY    28  16  60 SW6       29.97S WCI  22
WEST BEND      PTCLDY    28  18  64 W7        29.97F WCI  21
JUNEAU         CLEAR     27  19  71 SW8       29.99F WCI  18
$$

LSZ147-162-200200-
LAKE SUPERIOR

STATION/POSITION TIME  TEMP    WIND        PRES    WAVE
                       AIR SEA DIR/SP/G            HT/PER
                 (UTC) (F)     (DEG/KT/KT) (MB)    (FT/S)
DEVILS ISLAND    0000   28     220/ 15/ 18 1012.4R
SAXON HARBOR     0040   25      CALM  /  1 1011.5S
$$

LMZ867-665-643>646-200200-
LAKE MICHIGAN

STATION/POSITION TIME  TEMP    WIND        PRES    WAVE
                       AIR SEA DIR/SP/G            HT/PER
                 (UTC) (F)     (DEG/KT/KT) (MB)    (FT/S)
N MID LAKE BUOY  2350   30 48  260/ 16/ 21 1013.5S   3/ 4
NORTHPORT PIER   0040   30     280/  4/ 12 1012.9R
KEWAUNEE LAKESHO 0030   29     250/  6/  8 1013.3R
SHEBOYGAN LAKESH 0000   31     250/  8/ 11 1015.8R
PORT WASHINGTON  0030   29     250/  4/  6 1016.6S
MILWAUKEE LAKESH 0030   33     240/ 10/ 12   N/A
S MID LAKE BUOY  2350   35 49  310/ 17/ 25 1016.7R   4/ 5
KENOSHA   LAKESH 0000   31     260/  7/ 10 1016.9
$$

TC  - TEMPERATURE IN CELSIUS
VSB - VISIBILITY IN STATUTE MILES
WCI - WIND CHILL INDEX
HX  - HEAT INDEX




USA.gov is the U.S. government's official web portal to all federal, state and local government web resources and services.